Hourly Data Report for August 28, 2020

SVARTEVAEG
NUNAVUT
Current Station Operator: ECCC - MSC

81°09'39.000" N
91°48'59.060" W
72.00 m
2403833
71872
NSG

Download Data

Hourly Data (August 2020)
Hourly Data Report for August 28, 2020
TIME Temp Definition
°C
Dew Point Definition
°C
Rel Hum Definition
%
Wind Dir Definition
10's deg

Wind Spd Definition
km/h
Visibility Definition
km
Stn Press Definition
kPa
Hmdx Definition


Wind Chill Definition


Weather Definition


00:00 -1.3 -2.0 95 26 21   100.90   -7 LegendNANA
01:00 -1.2 -2.0 94 26 21   100.93   -7 LegendNANA
02:00 -0.9 -1.5 96 26 16   100.95   -6 LegendNANA
03:00 -0.9 -1.6 95 26 16   100.97   -6 LegendNANA
04:00 -0.8 -1.4 95 24 14   100.98   -5 LegendNANA
05:00 -0.7 -1.5 94 26 19   100.99   -6 LegendNANA
06:00 -0.7 -1.5 94 25 21   101.00   -6 LegendNANA
07:00 -0.7 -1.4 95 26 18   101.02   -6 LegendNANA
08:00 -0.4 -1.4 93 27 10   101.04   -4 LegendNANA
09:00 -0.3 -1.3 93 24 12   101.03   -4 LegendNANA
10:00 -0.1 -0.9 94 26 17   101.03   -5 LegendNANA
11:00 0.1 -1.2 91 27 12   101.04     LegendNANA
12:00 0.5 -1.5 87 26 4   101.03     LegendNANA
13:00 0.8 -0.9 88 2 1   101.04     LegendNANA
14:00 0.5 -0.4 93 36 2   101.03     LegendNANA
15:00 0.9 -0.3 92 33 1   101.02     LegendNANA
16:00 0.4 -0.2 96 1 5   101.02     LegendNANA
17:00 0.2 -0.2 97 34 9   101.01     LegendNANA
18:00 0.0 -0.4 97 34 10   100.99   -3 LegendNANA
19:00 0.0 -0.2 99 35 10   100.96   -3 LegendNANA
20:00 -0.2 -0.3 99 34 11   100.95   -4 LegendNANA
21:00 -0.3 -0.4 99 34 11   100.92   -4 LegendNANA
22:00 -0.4 -0.4 100 32 10   100.90   -4 LegendNANA
23:00 -0.2 -0.3 100 33 11   100.87   -4 LegendNANA

Notes on Data Quality.

Legend

  • E = Estimated
  • M = Missing
  • NA = Not Available*
  • [empty] = Indicates an unobserved value
Date modified: